Terminal Aerodrome Forecast
Issued by NWS Caribou, ME

Current Version | Previous Version | Text Only | Print | Product List | Glossary On
Versions: 1 2 3 4 5 6 7 8 9 10 11 12 13 14 15 16 17 18 19
000 FTUS41 KCAR 210121 AAB TAFCAR TAF AMD KCAR 210121Z 2101/2124 VRB03KT P6SM VCTS BKN080CB TEMPO 2101/2103 -TSRA BKN050CB FM210300 VRB03KT P6SM BKN070 FM211300 26005KT P6SM VCSH BKN070 FM211500 30007KT 6SM -SHRA OVC060 FM211700 30009KT P6SM VCTS BKN050CB=

USA.gov is the U.S. government's official web portal to all federal, state and local government web resources and services.